Regional Weather Roundup
Issued by NWS

Home | Current Version | Previous Version | Graphics & Text | Print | Product List | Glossary On
Versions: 1 2 3 4 5 6 7 8 9 10 11 12 13 14 15 16 17 18 19 20 21 22 23 24 25 26 27 28 29 30 31 32 33 34 35 36 37 38 39 40 41 42 43 44 45 46 47 48
000
ASUS45 KCYS 291410
RWRWY

WYOMING REGIONAL WEATHER ROUNDUP
NATIONAL WEATHER SERVICE CHEYENNE WY
700 AM MST THU JAN 29 2015

NOTE:  "FAIR" INDICATES FEW OR NO CLOUDS BELOW 12,000 FEET
WITH NO SIGNIFICANT WEATHER AND/OR OBSTRUCTIONS TO VISIBILITY.

WYZ001-291500-
YELLOWSTONE NATIONAL PARK

CITY           SKY/WX    TMP DP  RH WIND       PRES   REMARKS
LK YELLOWSTONE   N/A     16  14  92 CALM      30.45R
W YELLOWSTONE  NOT AVBL

$$
WYZ002>013-054>058-071-098>099-291500-
NORTHERN WYOMING

CITY           SKY/WX    TMP DP  RH WIND       PRES   REMARKS
JACKSON        MOCLDY    18  18 100 N9        30.45S WCI   6
CODY           FAIR      30  25  80 SW13      30.40S WCI  20
GREYBULL       FOG       27  27 100 CALM      30.45R VSB 1/2
WORLAND        MOCLDY    27  24  89 CALM      30.44R
SHERIDAN       FAIR      21  16  81 S3        30.43S
BUFFALO        FAIR      28  21  75 SW8       30.42S WCI  20
GILLETTE       FAIR      23  19  85 W6        30.44R WCI  16
HULETT           N/A    N/A N/A N/A MISG        N/A
NEWCASTLE      FAIR      21  18  86 NW7       30.45R WCI  13

$$
WYZ014>020-022>026-101>103-291500-
CENTRAL WYOMING

CITY           SKY/WX    TMP DP  RH WIND       PRES   REMARKS
BIG PINEY      MOCLDY    12   9  87 CALM      30.44R
PINEDALE       CLOUDY    12  12 100 W5        30.43F WCI   4
DUBOIS         FAIR      18  12  79 NW13      30.42R WCI   4
LANDER         FAIR      30  25  81 CALM      30.41S
RIVERTON       FAIR      30  27  88 CALM      30.43R
CASPER         FAIR      24  22  91 CALM      30.45R
DOUGLAS        FAIR      25  21  85 N3        30.46S

$$
WYZ021-027>030-104>119-291500-
SOUTHERN WYOMING

CITY           SKY/WX    TMP DP  RH WIND       PRES   REMARKS
EVANSTON       FOG       28  26  92 E3        30.39S VSB 1/4
FORT BRIDGER   PTSUNNY   27  27 100 W3        30.42F
ROCK SPRINGS   CLOUDY    29  28  96 E6        30.41S WCI  23
DIXON          CLOUDY    30  29  94 SE3       30.42S
RAWLINS        FAIR      28  25  88 NE6       30.43R WCI  22
SARATOGA       CLOUDY    30  28  93 W5        30.43R WCI  25
LARAMIE        CLOUDY    25  23  92 S6        30.42R WCI  18
CHEYENNE       CLOUDY    31  21  66 NW7       30.43R WCI  24
TORRINGTON     FAIR      29  22  75 NW7       30.46R WCI  22
PINE BLUFFS    FAIR      27  21  80 NW9       30.46R WCI  17

$$


USA.gov is the U.S. government's official web portal to all federal, state and local government web resources and services.